[Iaude] MPEC V86: 2016 VJ3 [a=1.57,e=0.68,i=34.4,H=24.6]

mpec at si.edu mpec at si.edu
Wed Nov 9 13:18:00 EST 2016


M.P.E.C. 2016-V86                                Issued 2016 Nov.  9, 18:14 UT
 
     The Minor Planet Electronic Circulars contain information on unusual
         minor planets and routine data on comets.  They are published
    on behalf of Division F of the International Astronomical Union by the
          Minor Planet Center, Smithsonian Astrophysical Observatory,
                          Cambridge, MA 02138, U.S.A.

             Prepared using the Tamkin Foundation Computer Network

                              MPC at CFA.HARVARD.EDU
            URL http://www.minorplanetcenter.net/    ISSN 1523-6714


                                   2016 VJ3
 
Observations:
     K16V03J* C2016 11 07.20963 01 55 11.82 +19 04 00.4          19.3 VqEV086G96
     K16V03J  C2016 11 07.21827 01 55 01.76 +19 06 39.7          19.5 VqEV086G96
     K16V03J  C2016 11 07.22256 01 54 56.58 +19 08 00.7          19.1 VqEV086G96
     K16V03J KC2016 11 07.27927 01 53 51.68 +19 25 07.0          19.5 RoEV086291
     K16V03J KC2016 11 07.28066 01 53 50.10 +19 25 32.0          19.6 RoEV086291
     K16V03J KC2016 11 07.28202 01 53 48.55 +19 25 56.1          19.6 RoEV086291
     K16V03J  C2016 11 07.28588 01 53 44.12 +19 27 03.0          19.9 VqEV086G96
     K16V03J  C2016 11 07.28629 01 53 43.62 +19 27 10.5          19.7 VqEV086G96
     K16V03J  C2016 11 07.28670 01 53 43.01 +19 27 17.9          19.4 VqEV086G96
     K16V03J  C2016 11 07.33266 01 52 51.67 +19 40 42.5          18.8 VqEV086G96
     K16V03J  C2016 11 07.33307 01 52 51.23 +19 40 49.4          19.3 VqEV086G96
     K16V03J  C2016 11 07.33349 01 52 50.75 +19 40 57.0          19.4 VqEV086G96
     K16V03J  C2016 11 07.41700 01 51 20.51 +20 04 28.3          19.6 VqEV086G96
     K16V03J  C2016 11 07.41741 01 51 20.05 +20 04 34.8          19.6 VqEV086G96
     K16V03J  C2016 11 07.41783 01 51 19.58 +20 04 41.1          18.5 VqEV086G96
     K16V03J  C2016 11 07.41828 01 51 19.21 +20 04 48.1          19.6 VqEV086G96
     K16V03J  C2016 11 07.42372 01 51 13.46 +20 06 18.9          19.6 VqEV086G96
     K16V03J  C2016 11 07.42413 01 51 13.01 +20 06 24.9          19.4 VqEV086G96
     K16V03J  C2016 11 07.43199 01 51 04.80 +20 08 34.2          19.2 VqEV086G96
     K16V03J  C2016 11 07.43370 01 51 03.01 +20 09 02.6          19.4 VqEV086G96
     K16V03J  C2016 11 07.43425 01 51 02.45 +20 09 11.5          19.6 VqEV086G96
     K16V03J  C2016 11 07.43602 01 51 00.61 +20 09 40.6          19.5 VqEV086G96
     K16V03J KC2016 11 07.85806 01 44 31.77 +21 55 48.2          20.1 RqEV086587
     K16V03J KC2016 11 07.86560 01 44 24.92 +21 57 32.4                qEV086587
     K16V03J KC2016 11 07.86579 01 44 25.49 +21 57 22.3                qEV086J95
     K16V03J KC2016 11 07.87167 01 44 20.29 +21 58 43.5          20.0 RqEV086J95
     K16V03J KC2016 11 07.87316 01 44 18.06 +21 59 16.6                qEV086587
     K16V03J KC2016 11 07.99117 01 42 33.44 +22 25 25.6          19.9 GUEV086204
     K16V03J KC2016 11 07.99885 01 42 26.79 +22 27 04.4                UEV086204
     K16V03J HC2016 11 08.00653 01 42 20.23 +22 28 42.9                UEV086204
     K16V03J  C2016 11 08.28910 01 38 38.72 +23 26 34.9          20.2 RoEV086926
     K16V03J  C2016 11 08.29144 01 38 36.89 +23 27 01.1          19.8 RoEV086926
     K16V03J  C2016 11 08.29377 01 38 34.96 +23 27 27.3          19.8 RoEV086926
     K16V03J  C2016 11 09.18030 01 29 01.98 +25 50 55.6          19.9 RoEV086926
     K16V03J  C2016 11 09.18356 01 29 00.06 +25 51 23.4          20.4 RoEV086926
     K16V03J  C2016 11 09.18683 01 28 58.06 +25 51 49.8          20.1 RoEV086926
     K16V03J  C2016 11 09.29480 01 27 54.13 +26 06 17.9          20.8 RoEV086926
     K16V03J  C2016 11 09.29807 01 27 52.30 +26 06 42.8          20.3 RoEV086926
     K16V03J  C2016 11 09.30133 01 27 50.36 +26 07 07.7          20.3 RoEV086926
 
Observer details:
204 Schiaparelli Observatory.  Observer L. Buzzi.  0.60-m f/4.64 reflector
    + CCD.
291 LPL/Spacewatch II.  Observer A. F. Tubbiolo.  1.8-m f/2.7 reflector + CCD.
587 Sormano.  Observers A. Fumagalli, A. Testa.  Measurer A. Testa.  0.5-m
    f/6.8 reflector + CCD.
926 Tenagra II Observatory.  Observers M. Schwartz, P. R. Holvorcem.  Measurer
    M. Schwartz.  0.81-m f/7 Ritchey-Chretien + CCD.
G96 Mt. Lemmon Survey.  Observer R. A. Kowalski.  Measurers E. J. Christensen,
    D. C. Fuls, A. R. Gibbs, A. D. Grauer, J. A. Johnson, R. A. Kowalski,
    S. M. Larson, G. J. Leonard, R. G. Matheny, R. L. Seaman, F. C. Shelly.
    1.5-m reflector + 10K CCD.
J95 Great Shefford.  Observer P. Birtwhistle.  0.40-m f/6.0 Schmidt-Cassegrain
    + CCD.
 
Orbital elements:
2016 VJ3                                                 Earth MOID = 0.0276 AU
Epoch 2016 July 31.0 TT = JDT 2457600.5                 MPC
M 337.16003              (2000.0)            P               Q
n   0.50129734     Peri.  253.57419     +0.34260123     +0.85437314
a   1.5694198      Node    43.72838     -0.48825556     +0.51724548
e   0.6813898      Incl.   34.42042     -0.80263996     +0.05003651
P   1.97           H   24.6           G   0.15           U   6
Residuals in seconds of arc
161107 G96  0.6+  0.4-    161107 G96  0.3-  0.2+    161107 587  0.3-  0.5+
161107 G96  0.6+  0.8-    161107 G96  0.7-  0.5-    161107 204  0.2-  0.2+
161107 G96  2.2-  1.2+    161107 G96  0.8+  0.9-    161107 204  0.4-  0.1+
161107 291  0.1-  0.1-    161107 G96  0.3+  0.2+    161108 204  0.3+  0.2+
161107 291  0.1-  0.2+    161107 G96  0.0   0.5-    161108 926  0.5-  0.6+
161107 291  0.2-  0.1+    161107 G96  0.1+  0.4-    161108 926  0.2-  0.1+
161107 G96  0.6+  0.4-    161107 G96  0.0   0.0     161108 926  1.3-  0.2-
161107 G96  0.1+  0.1-    161107 G96  0.2+  0.1-    161109 926  0.3-  0.6-
161107 G96  2.0-  0.0     161107 G96  0.3+  0.0     161109 926  0.2+  0.2+
161107 G96  0.0   0.2-    161107 587  0.2-  0.1-    161109 926  0.2-  0.5-
161107 G96  0.2+  0.4-    161107 587  0.2-  0.2+    161109 926  0.5-  0.4+
161107 G96  0.0   0.1-    161107 J95  0.2-  0.0     161109 926  0.4+  0.2-
161107 G96  0.1+  0.4+    161107 J95  1.1+  0.2+    161109 926  0.3-  0.7-

Ephemeris:
2016 VJ3                 a,e,i = 1.57, 0.68, 34                  q = 0.5000
Date    TT    R. A. (2000) Decl.     Delta      r     Elong.  Phase     V
2016 10 10    12 18 36.2 -38 27 20   0.4045  0.6969    33.3   128.1    27.4
...
2016 10 25    11 40 26.5 -44 06 26   0.1581  0.8866    43.6   129.4    26.0
...
2016 11 02    08 05 59.1 -51 13 42   0.04005 0.9876    82.2    95.5    21.0
...
2016 11 08    01 42 29.5 +22 28 00   0.07409 1.0616   162.3    16.5    20.0
2016 11 09    01 30 45.1 +25 25 32   0.08912 1.0737   158.1    20.1    20.5
2016 11 10    01 22 08.7 +27 28 57   0.1045  1.0858   154.9    22.8    21.0
...
2016 11 16    00 58 28.7 +32 45 25   0.2001  1.1571   144.2    30.0    22.7
...
2016 11 24    00 50 54.1 +34 44 42   0.3320  1.2488   136.4    33.1    24.1
...
2016 12 09    00 55 24.9 +35 51 44   0.5902  1.4101   125.2    34.8    25.6

A. U. Tomatic                (C) Copyright 2016 MPC           M.P.E.C. 2016-V86




More information about the Iaude mailing list